Regional Weather Roundup
Issued by NWS

Home | Current Version | Previous Version | Graphics & Text | Print | Product List | Glossary On
Versions: 1 2 3 4 5 6 7 8 9 10 11 12 13 14 15 16 17 18 19 20 21 22 23 24 25 26 27 28 29 30 31 32 33 34 35 36 37 38 39 40 41 42 43 44 45 46 47 48 49 50
000
ASUS43 KDTX 252210
RWRMI
MICHIGAN HOURLY REGIONAL WEATHER ROUNDUP
NATIONAL WEATHER SERVICE DETROIT/PONTIAC MI
600 PM EDT SAT MAR 25 2017

NOTE: "FAIR" INDICATES FEW OR NO CLOUDS BELOW 12,000 FEET WITH NO
SIGNIFICANT WEATHER AND/OR OBSTRUCTION TO VISIBILITY.

MIZ047>049-052>055-059>063-066>070-074>076-081>083-252300-
SOUTHEAST LOWER MICHIGAN

CITY           SKY/WX    TMP DP  RH WIND       PRES   REMARKS
ADRIAN         CLOUDY    44  40  85 E15       30.16R
ALMA           CLOUDY    38  37  97 NE16G22   30.20R WCI  29
ANN ARBOR      CLOUDY    43  40  89 NE10      30.17R
BAD AXE        LGT RAIN  36  35  93 E7        30.26R WCI  31
CARO           LGT RAIN  38  37  94 E6        30.22F WCI  34
DETROIT CITY   CLOUDY    43  39  86 E13       30.21S
DETROIT        CLOUDY    44  38  79 E10G21    30.19F
FLINT          LGT RAIN  41  39  93 E14       30.20F
GROSSE ILE     CLOUDY    44  38  82 E10G16    30.17F
HILLSDALE      CLOUDY    45  41  87 E13G22    30.10F
HOWELL         CLOUDY    43  40  91 E12       30.18R FOG

CITY           SKY/WX    TMP DP  RH WIND       PRES   REMARKS
JACKSON        CLOUDY    45  42  89 E16G22    30.13F
LAMBERTVILLE   CLOUDY    41  36  83 E16G22    30.16S
LANSING        CLOUDY    42  39  89 E9        30.16F
LAPEER         CLOUDY    39  38  97 E8        30.22R WCI  34
MASON          CLOUDY    43  42  96 E8        30.15S FOG
MONROE         CLOUDY    43  39  84 E13       30.17S
MT. CLEMENS    CLOUDY    41  41 100 E13       30.20R
PONTIAC        CLOUDY    42  40  92 E9G21     30.18S FOG
PORT HOPE        N/A     35  33  92 NE12      30.27R WCI  27
PORT HURON     CLOUDY    39  37  93 E12       30.23S WCI  32
TRI CITIES     CLOUDY    39  37  92 E14       30.23F WCI  31
MIDLAND        CLOUDY    36  34  94 NE9G18    30.23F WCI  29
TROY           CLOUDY    43  40  89 E8        30.22S
SAGINAW HB     CLOUDY    39  36  87 E14       30.21F WCI  31
$$
MIZ043>046-050>051-056>058-064>065-071>073-077>080-252300-
SOUTHWEST LOWER MICHIGAN

CITY           SKY/WX    TMP DP  RH WIND       PRES   REMARKS
BATTLE CREEK   CLOUDY    46  43  89 E15       30.10S
BENTON HARBOR  CLOUDY    52  46  80 E15G24    29.99F
BIG RAPIDS     CLOUDY    36  33  90 E15G25    30.17R WCI  26
COLDWATER      CLOUDY    48  45  88 E16       30.09S
FREMONT        CLOUDY    38  36  92 E15G28    30.10F WCI  29
HOLLAND        CLOUDY    43  40  89 E20G26    30.08S
GRAND RAPIDS   CLOUDY    40  37  89 E24G31    30.11F WCI  29
IONIA          CLOUDY    39  37  94 NE16G24   30.13F WCI  30
KALAMAZOO      CLOUDY    47  42  83 E14G21    30.09S HAZE
LUDINGTON      FLURRIES  38  37  94 E22G30    30.11F WCI  28
MARSHALL       LGT RAIN  45  44  96 E8        30.11S
MOUNT PLEASANT CLOUDY    36  34  94 E10       30.21S WCI  28
MUSKEGON       CLOUDY    42  38  85 E14G30    30.09F
SOUTH HAVEN    CLOUDY    46  44  90 E17G23    30.03F
$$
MIZ016>042-252300-
NORTHERN LOWER MICHIGAN

CITY           SKY/WX    TMP DP  RH WIND       PRES   REMARKS
ALPENA         CLOUDY    33  27  78 E18       30.30F WCI  22
BEAVER ISLAND  CLOUDY    34  28  78 E14G24    30.26R WCI  24
BELLAIRE       CLOUDY    40  30  67 NE9       30.23F WCI  34
CADILLAC       LGT SNOW  35  33  92 E15G26    30.17F WCI  25
CHARLEVOIX     CLOUDY    40  30  67 E15       30.26R WCI  32
FRANKFORT      CLOUDY    40  33  77 E7        30.18S HAZE    WCI  35
GAYLORD        CLOUDY    35  27  72 E7G20     30.23R WCI  29
GRAYLING       CLOUDY    36  30  80 E16G22    30.23F WCI  26
HARBOR SPRINGS CLOUDY    37  29  72 E13G25    30.26R WCI  29
HOUGHTON LAKE  LGT RAIN  35  31  85 E10G21    30.23S WCI  27
MANISTEE       LGT RAIN  39  36  87 E18       30.13F WCI  30
OSCODA         CLOUDY    34  32  90 E10       30.30R WCI  26
PELLSTON       CLOUDY    36  26  67 E16G25    30.27F WCI  26
ROGERS CITY    CLOUDY    34  26  74 E16G22      N/A  WCI  23
TRAVERSE CITY  CLOUDY    40  32  73 E10       30.21S WCI  33
$$
MIZ007>008-015-252300-
EASTERN UPPER MICHIGAN

CITY           SKY/WX    TMP DP  RH WIND       PRES   REMARKS
KINROSS        CLOUDY    36  15  42 E17       30.30F WCI  26
MACKINAC ISLAN CLOUDY    33  26  75 E6G26     30.29S WCI  28
NEWBERRY       CLOUDY    39  24  56 E14G20    30.25F WCI  30
S. S. MARIE    CLOUDY    40  16  37 SE13      30.30F WCI  32
MUNISING         N/A     36  30  79 N6        30.25F WCI  31
$$
MIZ004>006-011>014-085-252300-
CENTRAL UPPER MICHIGAN

CITY           SKY/WX    TMP DP  RH WIND       PRES   REMARKS
MANISTIQUE     CLOUDY    37  28  70 E12G18    30.26S WCI  30
ESCANABA       CLOUDY    38  29  70 E16       30.25S WCI  29
MENOMINEE        N/A    N/A N/A N/A MISG        N/A
SAWYER-GWINN   CLOUDY    36  30  80 N9        30.23F WCI  29
$$
MIZ001>003-009>011-084-252300-
WESTERN UPPER MICHIGAN

CITY           SKY/WX    TMP DP  RH WIND       PRES   REMARKS
IRON MOUNTAIN  CLOUDY    41  28  60 E12       30.19R
HOUGHTON       CLOUDY    31  26  82 E10       30.24F WCI  22
COPPER HARBOR    N/A     32  26  78 E9        30.29F WCI  24
IRONWOOD       CLOUDY    38  30  73 E9        30.17F WCI  31
$$

ABBREVIATIONS USED IN REMARKS
   TC - TEMPERATURE IN CELSIUS
  WCI - WIND CHILL INDEX
   HX - HEAT INDEX
  VSB - VISIBILITY





USA.gov is the U.S. government's official web portal to all federal, state and local government web resources and services.